sat.trackr.live / text

‹ back to catalog

STARLINK-3289

NORAD 50173 · 2021-125T

PAYLOAD ACTIVE UNKNOWN

§ Identity

Operator
Country
US
Launch date
2021-12-18
Launch site
AFWTR
Launch vehicle
Mass (kg)
RCS (m²)

Purposes: comms

External: N2YO · Heavens-Above · Gunter

§ Orbital elements

Epoch: 2026-09-20T03:34:27.316128Z

Period
94.92 min
Inclination
53.2117°
Eccentricity
0.0002586
Mean motion
15.17071371 rev/d
Perigee alt
512.9 km
Apogee alt
516.5 km
Semi-major
6,892.8 km
B*
4.4384e-4
RAAN
79.3004°
Arg perigee
100.8390°
Mean anomaly
259.2897°
Rev number
26,620

§ Raw data

STARLINK-32891 50173U 21125T   26263.14892727  .00008592  00000+0  44384-3 0  99952 50173  53.2117  79.3004 0002586 100.8390 259.2897 15.17071371266203

JSON: /api/v1/satellites/50173 · /tle

For live sub-satellite position, see the globe view (requires WebGL).

§ Visibility from observer

Set your observer location to see the next 7 days of passes ≥ 10°. The values pass through the URL so the page stays shareable.

No JS? Fill the form by hand. The geolocation button needs JavaScript.